Volver al catálogo

FENGYUN 1C DEB

ActivoSSO
NORAD 30668·DEBRIS·🇨🇳 China

Lanzado May 10, 1999 desde Taiyuan Satellite Launch Center

Loading…

Próximos Pases (próximas 24 horas)

TLE

ActualizadoSource: Space-Track

Época: Sep 14, 2026, 17:43 UTC

1 30668U 99025AQA 26257.73854166  .00001760  00000-0  92603-3 0  9997
2 30668  99.1200 341.0968 0080297 189.6405 322.7564 14.13745851999539

Sigue FENGYUN 1C DEB en tiempo real con AllMySat

Download on the App Store